Location: Waco, TX
(31.5480°N, 97.1670°W)
Time: 18:17:51
(UTC-06:00)

ISS - Pass Details

Date: 14 January 2019
Orbit: 404 x 410 km, 51.6° (Epoch: 24 January)

Event Time Altitude Azimuth Distance (km) Brightness Sun altitude
Rises 22:10:02 0° 245° (WSW) 2,322 - -55.5°
Reaches altitude 10° 22:12:15 10° 256° (WSW) 1,466 - -56.0°
Maximum altitude 22:15:13 31° 320° (NW) 749 - -56.6°
Drops below altitude 10° 22:18:12 10° 25° (NNE) 1,475 - -57.2°
Sets 22:20:27 0° 36° (NE) 2,339 - -57.7°
